Julius Nyerere International Airport

Jump to: basic info | weather | frequencies | runways | comments

Related pages: nearby airports | nearby navaids | notams | map

Basic information (top)

Codes: DAR HTDA
Location: lon -6.878110, lat 39.202599, elev 182 ft / 55 m msl
Status: medium_airport
Scheduled airline service: yes
Links: Wikipedia Mobile

Weather (top)

Current conditions (rec'd 2014/09/01 20:00Z):

HTDA 012000Z 17003KT 9999 FEW022 23/21 Q1016 NOSIG

Airport forecast (rec'd 2014/09/02 00:00Z):

TAF HTDA 012200Z 0200/0306 13005KT 9999 SCT023 
      BECMG 0203/0206 19010KT 
      BECMG 0208/0215 12010G20KT SCT026 BKN070 
      BECMG 0218/0300 00000KT FEW023 
      BECMG 0303/0306 18010KT

Frequencies (top)

Verify before use: may be inaccurate or out of date.

ACC: 119.3 MHz (CON)
APP: 119.6 MHz (APP)
TWR: 118.3 MHz (TWR)

Runways (top)

05/23: 9,843 x 151 ft (3,000 x 46 m) — paved — lighted

14/32: 3,280 x 98 ft (1,000 x 30 m) — paved — not lighted

Latest comments (top)

re: website: I agree, Bill. They do have a web ... [read]

website: It would be quite useful if, like any ... [read]

More... (top)

See also NOTAMs and nearby airports and navaids, or visit the Julius Nyerere International Airport page at the main OurAirports website..